Volver al catálogo

COSMOS 1823 DEB

ActivoLEO
NORAD 29359·DEBRIS·🇷🇺 Russia

Lanzado Feb 20, 1987 desde Plesetsk Cosmodrome

Loading…

Próximos Pases (próximas 24 horas)

TLE

ActualizadoSource: Space-Track

Época: Sep 14, 2026, 22:04 UTC

1 29359U 87020EA  26257.91946422 -.00000001  00000-0  11682-3 0  9997
2 29359  73.6156 304.5086 0028681 106.3511  75.7060 12.41131132540009

Sigue COSMOS 1823 DEB en tiempo real con AllMySat

Download on the App Store